Wind_Speed
17 17 17 17 17 17 17 17 16 16 15 14 12 11 10 10 10 8 7 6 4 4 4 4 4 4 5 6 6 7 7 6 5 5 4 4 5 5 5 6 5 5 4 4 5 5 5 7 8
16 16 17 17 17 17 17 16 17 17 16 15 14 13 11 11 11 10 8 7 6 4 4 5 5 5 6 6 6 6 6 6 5 5 5 5 5 5 5 5 5 5 4 4 5 5 6 6 7
16 15 16 17 17 18 18 17 17 17 16 15 15 14 13 12 12 11 10 8 7 5 5 6 6 7 7 7 7 6 6 6 6 5 5 5 6 6 5 5 5 4 4 4 5 6 6 6 6
15 15 16 17 18 18 18 18 19 18 16 16 15 14 14 13 12 12 11 10 8 7 6 6 7 7 7 7 7 8 8 7 6 6 6 6 6 6 5 5 4 4 4 4 5 6 6 6 5
15 15 16 17 18 18 19 20 20 18 17 17 16 14 14 13 12 12 12 11 10 9 8 8 8 7 7 7 8 8 8 7 7 7 7 7 6 5 5 5 4 4 3 4 4 5 6 6 6
16 15 16 17 17 17 18 19 19 18 17 16 16 15 14 13 12 11 11 11 10 9 9 9 8 8 8 8 8 8 7 7 8 7 7 7 6 6 5 5 4 4 4 4 4 5 6 7 7
16 16 17 17 18 18 18 18 19 18 17 16 16 15 14 14 12 12 11 11 11 10 9 9 9 9 9 9 8 7 7 7 7 7 7 7 6 6 5 4 4 4 4 4 3 3 5 8 7
15 15 17 17 18 18 18 19 18 17 16 16 15 15 14 14 13 12 11 12 11 10 10 10 10 10 10 9 8 7 7 7 7 7 7 6 6 6 5 4 4 4 4 4 4 4 5 6 6
14 14 16 17 18 18 18 19 18 17 16 16 15 15 14 13 12 12 12 12 11 10 11 12 11 10 10 9 8 7 7 6 6 6 6 6 6 5 5 4 4 4 4 4 4 5 5 5 4
12 13 15 16 17 18 18 19 18 17 16 16 17 17 15 14 13 12 12 12 12 12 12 12 11 10 9 9 8 7 7 7 6 5 5 5 5 5 5 4 4 4 4 4 4 4 4 4 4
10 12 13 15 16 18 18 18 18 17 16 16 17 17 16 15 14 13 12 13 14 13 13 12 11 10 9 8 8 7 6 6 5 5 4 5 4 4 4 4 5 4 4 4 4 3 3 3 3
9 10 11 13 14 15 16 17 17 16 16 16 16 16 16 16 14 13 13 13 13 13 12 12 11 10 10 9 8 7 6 6 5 5 4 4 4 4 4 4 5 4 4 4 3 3 3 3 3
9 10 10 11 12 13 14 15 15 15 15 15 14 14 15 16 15 14 13 13 13 13 12 12 11 10 9 8 8 8 7 6 6 5 4 4 4 4 4 4 4 4 4 3 2 2 2 3 3
7 9 10 10 11 12 13 14 14 14 14 14 13 13 14 14 14 13 13 12 12 12 12 12 11 10 9 8 8 7 7 7 7 6 5 4 4 4 4 4 3 3 4 3 3 2 2 3 3
3 5 7 8 10 11 11 13 14 13 13 13 12 12 13 13 13 13 13 12 12 13 13 12 11 11 10 9 8 8 8 8 7 7 6 5 4 4 4 3 3 3 3 3 3 2 2 3 2
0 3 4 6 7 9 10 11 12 12 12 12 11 12 12 13 12 12 12 12 12 12 12 12 11 11 10 10 10 10 9 8 7 7 7 6 5 4 3 3 3 2 2 2 2 2 3 3 3
1 1 3 4 6 7 8 9 10 11 11 11 11 11 12 12 12 11 12 12 12 12 12 12 11 11 10 9 9 9 9 8 7 7 7 6 5 4 3 3 3 2 2 1 1 1 3 4 4
3 1 2 3 3 5 6 7 8 9 10 10 10 10 11 11 11 11 11 12 11 12 12 11 11 10 10 9 9 9 9 8 7 7 6 6 5 3 3 3 2 1 1 1 0 1 2 3 4
5 3 1 1 1 2 3 5 7 7 8 8 9 9 10 10 10 10 10 10 11 11 11 11 10 9 9 9 9 9 8 8 7 7 7 6 5 4 4 3 2 2 1 1 1 1 1 2 3
8 6 4 3 2 1 1 3 4 5 5 6 7 7 8 9 9 9 10 10 10 10 10 10 10 10 9 8 8 8 8 8 7 7 7 6 5 5 4 3 3 2 2 1 1 1 1 2 3
11 9 7 6 6 4 3 2 3 4 3 4 5 5 6 6 7 8 8 9 9 9 9 9 10 9 9 8 8 8 8 7 7 6 6 5 5 4 4 3 3 3 3 2 2 2 2 3 3
14 12 11 9 9 7 6 4 4 4 4 4 3 3 4 5 5 6 7 7 7 8 8 8 8 9 8 8 7 7 7 7 6 5 5 4 4 4 4 4 3 4 3 2 2 3 3 4 4
17 15 14 13 11 10 8 7 6 5 5 4 3 2 2 3 4 4 5 5 6 6 6 7 7 9 8 8 6 6 6 6 6 5 5 4 4 4 4 4 4 4 3 3 3 3 4 4 4
20 18 17 16 14 13 11 10 7 6 6 5 4 4 3 2 2 2 3 4 5 5 5 5 6 7 8 8 7 6 5 5 5 5 5 4 4 4 4 4 5 5 4 4 4 4 4 5 5
21 20 18 18 17 16 13 13 9 8 7 6 5 5 4 3 2 1 2 3 4 4 4 4 6 6 7 8 7 7 5 4 4 4 4 4 4 4 4 4 4 5 5 5 5 5 5 5 6
23 22 21 20 18 17 16 15 11 9 8 7 6 6 5 4 3 2 2 1 2 3 3 3 4 5 6 6 7 7 6 5 4 3 3 3 3 4 4 5 5 6 5 6 7 7 6 6 6
26 24 22 22 21 21 19 17 13 11 11 10 8 7 6 5 5 4 3 2 2 2 2 2 3 4 5 5 6 6 6 5 4 3 3 4 4 5 5 5 6 6 6 7 7 7 7 7 7
27 25 25 24 24 23 22 19 15 13 12 11 10 8 8 7 7 6 5 4 4 3 3 3 3 4 5 5 5 6 5 5 5 5 5 5 6 7 7 7 7 7 7 7 7 7 7 8 8
28 27 26 25 25 25 24 21 17 15 14 12 11 10 10 9 9 9 8 7 6 6 5 5 5 5 5 5 6 6 5 5 5 6 6 6 7 8 8 8 8 8 8 8 7 8 8 9 9
28 27 27 27 26 25 25 22 19 17 16 15 14 13 12 12 12 12 11 10 8 8 7 6 6 6 6 6 6 6 6 6 7 7 7 7 8 7 8 8 8 8 8 8 8 8 9 10 11
Wind_Direction
57 60 59 59 60 60 57 53 50 49 47 45 45 48 52 57 57 59 62 71 79 87 103 114 116 111 107 108 105 107 110 113 116 119 124 128 132 133 138 146 148 148 144 152 161 157 146 154 158
60 60 58 58 57 57 57 55 53 50 46 45 44 50 55 58 58 56 58 65 74 93 103 105 109 112 115 109 106 109 110 114 115 116 122 127 128 131 141 146 148 148 144 149 162 166 158 163 167
61 59 59 58 57 59 57 55 54 52 48 46 47 51 55 55 55 56 60 64 73 92 98 107 110 110 112 112 111 108 113 113 113 116 124 127 124 125 133 141 142 146 143 149 159 170 161 169 172
62 60 57 57 58 58 57 55 54 53 50 48 49 53 54 54 53 56 60 62 70 79 91 104 112 113 113 114 109 103 104 106 110 113 118 122 122 119 125 133 140 141 141 150 159 167 166 172 178
63 60 58 57 58 56 56 53 51 48 48 49 51 55 57 56 55 58 62 65 68 74 86 95 101 104 106 108 108 101 99 106 106 107 110 117 121 125 128 132 137 138 145 148 158 170 180 178 182
61 60 60 58 56 53 55 53 50 47 47 50 52 56 54 55 57 61 66 67 69 77 86 91 95 101 107 108 106 100 101 102 99 102 110 117 119 125 131 137 132 126 136 150 155 180 195 193 191
59 60 60 57 56 53 54 53 50 48 48 50 52 54 54 58 61 61 66 67 68 76 85 91 93 94 99 103 101 102 101 103 104 107 111 118 120 125 131 130 126 122 127 129 142 160 174 183 186
59 58 57 56 55 52 54 52 49 50 49 51 53 53 55 58 60 61 65 65 66 76 84 89 93 92 97 99 100 102 104 105 106 109 111 115 119 125 131 128 127 129 130 130 129 129 148 164 169
61 58 56 55 53 52 54 53 51 50 51 52 53 54 55 58 61 64 66 66 67 75 83 88 90 90 94 98 101 106 108 110 108 111 115 115 117 122 127 128 126 124 127 133 130 133 136 147 161
66 63 60 57 53 56 56 54 52 51 52 53 52 52 54 55 59 64 68 70 70 78 82 84 83 85 87 90 95 98 105 111 114 117 119 118 117 122 129 132 130 127 133 133 131 146 148 155 173
70 66 66 61 57 57 57 53 51 51 52 54 54 53 54 55 59 65 71 74 73 75 78 81 81 84 85 86 87 86 94 104 112 122 126 125 123 128 136 139 135 135 139 143 132 146 165 186 202
69 67 68 63 61 57 53 50 50 50 51 53 55 55 55 52 55 65 73 76 73 72 73 73 77 83 84 83 80 78 87 85 101 113 117 120 119 121 132 140 141 137 140 137 136 155 173 200 223
68 69 69 66 62 58 56 53 49 50 50 50 54 55 52 52 56 61 71 76 72 69 67 69 76 78 80 84 81 75 78 83 94 105 108 116 120 127 141 144 145 147 156 146 145 170 196 219 232
68 63 65 67 63 58 57 58 53 50 50 49 53 55 52 49 53 60 64 69 70 67 64 64 76 76 75 79 82 76 81 90 90 94 100 104 115 121 130 137 138 157 167 165 168 188 238 237 238
67 58 62 64 60 56 55 59 54 50 49 49 51 51 49 48 54 57 60 66 67 64 62 60 72 70 70 73 81 82 84 86 90 91 92 93 97 111 123 136 138 149 166 180 184 202 244 253 243
64 57 60 55 54 51 53 58 55 48 47 46 48 50 50 51 56 57 56 61 63 62 58 56 64 64 67 74 82 84 86 89 90 89 86 88 87 94 104 111 130 144 158 172 196 235 243 257 271
245 27 54 51 47 49 51 58 54 50 46 46 47 49 49 51 53 55 53 57 59 59 57 55 60 62 64 74 81 82 85 87 87 87 83 83 84 89 101 100 119 138 146 158 181 234 257 274 281
230 252 43 47 42 44 50 53 55 53 47 47 44 45 48 48 50 54 54 55 56 56 56 56 62 65 65 71 74 76 81 82 83 84 82 80 82 84 94 79 73 88 126 131 116 305 308 290 284
229 236 249 347 13 26 39 45 43 45 47 45 42 42 43 45 50 52 50 51 54 54 54 55 60 62 63 64 69 71 77 81 82 80 77 77 75 74 67 50 35 27 45 53 34 346 321 301 294
227 230 233 242 257 324 2 22 26 32 46 46 38 37 35 40 46 51 51 49 49 51 52 54 57 57 58 62 68 71 74 78 81 79 74 75 78 76 59 31 12 8 24 33 351 324 294 287 297
226 232 237 248 256 265 278 306 353 9 18 28 32 30 30 35 44 49 49 48 47 48 51 55 57 58 60 64 68 74 76 75 76 74 69 68 67 58 40 22 18 14 28 31 16 347 322 320 311
229 235 240 248 258 258 266 281 301 325 335 350 12 17 17 29 37 39 43 44 44 46 48 50 56 56 59 65 67 68 70 68 67 66 62 64 58 46 35 29 32 30 33 32 15 357 342 332 326
232 234 239 245 254 257 260 266 280 300 314 330 339 336 342 12 30 36 36 35 39 43 44 45 53 53 54 55 58 64 65 59 54 54 50 50 45 35 35 31 25 23 21 12 359 354 346 339 327
232 235 240 245 250 253 259 264 269 286 297 303 308 310 303 323 0 23 27 21 29 36 40 39 45 48 47 44 46 53 54 53 49 44 37 31 30 32 26 21 14 14 10 3 350 336 326 326 325
232 234 238 244 247 250 255 260 268 278 281 284 288 293 287 285 302 330 4 6 17 22 23 28 34 41 40 38 38 40 42 40 42 34 27 27 25 18 14 359 355 3 0 351 341 336 324 325 329
232 235 239 246 250 251 254 259 266 273 270 269 270 276 271 274 285 288 304 318 353 8 16 19 23 28 28 26 26 26 25 19 19 19 19 12 6 359 354 352 341 345 346 344 340 334 326 327 326
232 233 238 245 249 252 256 260 260 265 266 262 263 267 265 262 267 268 278 282 306 326 340 356 4 5 3 3 5 10 12 11 9 357 354 346 339 337 337 336 339 338 336 333 331 331 330 327 323
235 235 237 241 247 251 256 257 256 262 262 259 263 266 261 258 259 259 267 273 277 292 305 311 317 326 335 341 344 348 353 355 354 351 329 319 320 322 323 318 319 324 326 329 322 323 324 321 324
236 238 239 241 246 252 257 259 260 260 258 258 262 263 262 261 259 259 262 268 268 275 283 289 293 302 313 321 326 329 332 334 334 336 336 329 317 312 312 312 312 316 318 318 316 316 314 315 317
238 240 240 242 246 250 255 259 259 256 257 258 261 264 265 266 264 261 261 263 265 268 273 282 287 293 299 302 308 314 316 318 321 322 322 323 321 320 319 315 314 314 315 315 313 312 313 312 314
Height
5875 5874 5873 5872 5871 5869 5867 5866 5865 5864 5863 5862 5861 5860 5860 5859 5859 5861 5858 5856 5857 5857 5858 5858 5858 5859 5859 5860 5860 5861 5862 5863 5863 5864 5865 5866 5867 5868 5869 5870 5871 5872 5873 5873 5874 5875 5876 5876 5876
5877 5876 5876 5874 5872 5870 5869 5867 5866 5865 5865 5864 5863 5861 5861 5860 5859 5858 5857 5857 5857 5857 5858 5858 5859 5859 5860 5860 5861 5861 5862 5863 5864 5865 5865 5867 5868 5869 5870 5870 5871 5872 5873 5873 5874 5875 5876 5877 5878
5879 5878 5878 5876 5873 5872 5871 5869 5867 5867 5866 5865 5864 5863 5862 5861 5860 5859 5858 5858 5858 5858 5858 5859 5859 5860 5860 5861 5861 5862 5863 5864 5864 5865 5866 5867 5868 5869 5870 5871 5872 5873 5873 5873 5874 5875 5876 5878 5879
5882 5881 5880 5878 5875 5874 5872 5871 5870 5869 5868 5867 5865 5864 5863 5863 5861 5861 5860 5859 5859 5859 5859 5859 5860 5861 5861 5862 5862 5863 5864 5864 5865 5866 5866 5867 5869 5870 5871 5871 5872 5873 5873 5873 5874 5875 5876 5878 5879
5884 5883 5881 5879 5877 5876 5874 5873 5872 5871 5870 5868 5867 5866 5865 5865 5863 5862 5862 5861 5861 5861 5861 5861 5861 5861 5862 5862 5863 5864 5865 5865 5866 5866 5867 5868 5869 5870 5871 5872 5872 5873 5873 5874 5874 5875 5876 5877 5879
5885 5884 5883 5881 5879 5878 5876 5875 5874 5873 5872 5870 5869 5868 5867 5866 5865 5864 5864 5864 5863 5863 5862 5862 5862 5862 5863 5864 5864 5865 5865 5866 5867 5867 5868 5869 5870 5871 5872 5872 5873 5873 5874 5874 5874 5874 5874 5876 5879
5888 5886 5884 5883 5881 5880 5879 5877 5876 5875 5874 5873 5871 5870 5869 5868 5867 5867 5866 5866 5865 5864 5864 5863 5863 5864 5864 5865 5866 5866 5867 5867 5868 5869 5869 5870 5871 5872 5873 5873 5874 5874 5874 5875 5874 5873 5872 5875 5878
5889 5889 5886 5884 5883 5882 5881 5879 5878 5877 5876 5875 5874 5872 5871 5870 5869 5868 5868 5867 5867 5866 5865 5865 5865 5865 5865 5866 5867 5867 5868 5869 5869 5870 5870 5871 5871 5872 5873 5874 5874 5875 5875 5875 5875 5875 5874 5876 5879
5891 5891 5888 5887 5886 5885 5883 5882 5881 5880 5879 5877 5876 5874 5873 5872 5871 5870 5869 5869 5868 5867 5867 5867 5867 5867 5867 5867 5868 5868 5869 5869 5870 5870 5871 5872 5872 5873 5874 5874 5875 5875 5876 5876 5876 5877 5877 5878 5880
5892 5892 5890 5889 5888 5887 5886 5885 5884 5883 5881 5880 5878 5876 5875 5874 5873 5872 5871 5871 5870 5869 5869 5869 5869 5868 5868 5868 5868 5869 5869 5870 5871 5871 5872 5872 5873 5874 5875 5875 5875 5876 5876 5877 5877 5878 5879 5880 5881
5894 5893 5892 5891 5890 5889 5888 5887 5886 5885 5884 5882 5881 5879 5878 5877 5875 5874 5874 5873 5873 5871 5871 5870 5870 5870 5870 5870 5870 5870 5870 5871 5871 5872 5872 5873 5874 5874 5875 5875 5876 5876 5877 5878 5878 5879 5879 5880 5881
5896 5895 5894 5893 5892 5891 5890 5889 5889 5887 5887 5885 5883 5882 5881 5879 5878 5877 5876 5875 5875 5874 5873 5872 5872 5871 5871 5871 5871 5870 5871 5871 5872 5872 5873 5874 5874 5875 5875 5876 5876 5877 5878 5878 5879 5879 5880 5881 5881
5897 5897 5896 5895 5894 5893 5893 5892 5891 5890 5889 5887 5886 5885 5883 5882 5880 5879 5878 5877 5877 5876 5875 5874 5873 5873 5873 5872 5872 5872 5872 5872 5872 5873 5874 5874 5875 5875 5876 5876 5877 5877 5878 5878 5879 5880 5880 5880 5880
5899 5898 5898 5897 5896 5895 5895 5894 5893 5892 5891 5890 5889 5887 5886 5885 5883 5882 5880 5879 5879 5878 5877 5876 5875 5875 5874 5874 5873 5873 5873 5873 5873 5874 5874 5875 5876 5876 5876 5877 5878 5878 5878 5879 5879 5880 5880 5880 5880
5900 5900 5900 5898 5897 5897 5897 5896 5895 5894 5893 5892 5891 5889 5888 5886 5885 5884 5883 5881 5881 5880 5879 5878 5877 5876 5876 5875 5875 5874 5874 5874 5874 5875 5875 5876 5876 5877 5877 5878 5878 5878 5879 5879 5880 5880 5880 5880 5880
5900 5901 5901 5900 5899 5898 5900 5899 5897 5896 5895 5894 5893 5891 5890 5889 5887 5886 5885 5884 5883 5882 5881 5880 5878 5878 5877 5877 5876 5875 5875 5875 5876 5876 5876 5877 5877 5877 5878 5878 5879 5879 5879 5879 5880 5880 5880 5880 5880
5901 5901 5901 5901 5900 5900 5900 5900 5899 5898 5897 5896 5895 5893 5892 5891 5890 5889 5888 5886 5885 5884 5883 5881 5880 5879 5879 5878 5878 5877 5877 5877 5877 5877 5878 5878 5878 5879 5879 5879 5879 5879 5879 5879 5879 5879 5879 5880 5879
5901 5901 5901 5901 5901 5901 5901 5901 5900 5899 5899 5898 5897 5895 5894 5893 5892 5891 5890 5889 5887 5886 5885 5883 5882 5881 5881 5880 5879 5879 5878 5878 5879 5879 5879 5879 5879 5879 5879 5880 5880 5880 5880 5879 5879 5880 5879 5879 5879
5900 5901 5901 5901 5901 5901 5901 5902 5901 5901 5900 5899 5898 5897 5896 5895 5893 5892 5891 5890 5889 5887 5886 5885 5884 5883 5882 5881 5881 5880 5880 5880 5880 5880 5880 5880 5880 5880 5880 5880 5880 5880 5880 5880 5879 5879 5879 5879 5879
5899 5900 5901 5901 5901 5901 5901 5902 5902 5901 5901 5900 5899 5898 5897 5896 5895 5894 5893 5891 5890 5889 5888 5887 5886 5885 5884 5883 5882 5882 5881 5881 5881 5881 5881 5881 5881 5881 5881 5881 5881 5880 5880 5879 5879 5879 5878 5878 5878
5898 5899 5900 5901 5901 5901 5901 5902 5902 5902 5901 5901 5900 5899 5898 5897 5895 5895 5894 5893 5892 5891 5890 5889 5887 5886 5885 5885 5884 5883 5883 5882 5882 5882 5882 5882 5882 5882 5882 5881 5880 5880 5879 5879 5878 5878 5878 5877 5877
5896 5898 5899 5899 5900 5900 5901 5902 5902 5902 5902 5901 5900 5900 5899 5897 5896 5896 5895 5894 5893 5892 5891 5890 5889 5888 5887 5886 5885 5885 5884 5884 5884 5884 5883 5883 5883 5882 5882 5881 5880 5880 5879 5879 5878 5878 5877 5877 5877
5894 5896 5897 5897 5898 5899 5900 5900 5902 5901 5901 5901 5900 5900 5899 5898 5897 5896 5896 5895 5894 5893 5893 5891 5890 5889 5888 5887 5886 5886 5885 5885 5885 5884 5884 5884 5883 5882 5882 5881 5880 5880 5879 5878 5878 5878 5877 5877 5876
5891 5893 5894 5895 5896 5897 5898 5899 5900 5900 5901 5901 5900 5899 5899 5898 5898 5897 5896 5895 5894 5894 5893 5892 5892 5890 5889 5888 5887 5886 5886 5886 5885 5885 5884 5884 5883 5883 5882 5881 5880 5880 5879 5878 5878 5877 5877 5876 5875
5888 5890 5891 5892 5893 5895 5896 5896 5899 5899 5899 5900 5899 5899 5898 5898 5898 5897 5896 5895 5895 5894 5893 5893 5892 5891 5890 5889 5888 5887 5886 5886 5885 5885 5884 5884 5883 5883 5882 5881 5880 5879 5879 5878 5877 5876 5876 5875 5874
5884 5887 5889 5890 5891 5893 5893 5894 5897 5897 5897 5897 5898 5898 5897 5897 5897 5897 5896 5895 5895 5894 5893 5893 5892 5891 5890 5889 5889 5887 5887 5886 5886 5885 5885 5884 5883 5882 5882 5881 5880 5879 5878 5877 5876 5876 5875 5874 5873
5880 5882 5885 5887 5887 5889 5890 5892 5894 5894 5895 5896 5896 5897 5896 5896 5896 5896 5895 5895 5894 5893 5893 5892 5892 5891 5890 5890 5889 5888 5887 5886 5886 5885 5884 5883 5883 5882 5881 5881 5880 5879 5878 5877 5875 5875 5874 5873 5872
5876 5878 5881 5882 5883 5884 5886 5888 5891 5892 5893 5894 5894 5895 5895 5895 5894 5894 5894 5894 5893 5893 5892 5892 5891 5891 5890 5889 5888 5888 5887 5886 5885 5885 5884 5883 5882 5881 5880 5880 5879 5878 5877 5875 5874 5873 5873 5871 5870
5871 5874 5875 5878 5879 5881 5882 5887 5888 5890 5890 5891 5892 5892 5892 5892 5892 5892 5892 5892 5892 5892 5891 5891 5890 5890 5889 5888 5888 5887 5886 5886 5885 5884 5883 5882 5881 5880 5879 5878 5878 5877 5876 5874 5873 5872 5871 5870 5869
5866 5868 5871 5873 5875 5876 5878 5884 5884 5886 5887 5888 5889 5889 5889 5890 5890 5890 5890 5890 5890 5890 5890 5889 5889 5888 5888 5887 5886 5886 5885 5885 5884 5883 5882 5881 5879 5878 5878 5876 5876 5875 5874 5873 5872 5871 5870 5869 5867